Location: Bergnershof
(48.9468°N, 10.9431°E)
Time: 09:49:25
(UTC+00:00)

Cosmos 2322 - Pass Details

Date: 03 March 2021
Orbit: 841 x 853 km, 71.0° (Epoch: 12 April)

Event Time Altitude Azimuth Distance (km) Brightness Sun altitude
Rises 19:44:25 0° 216° (SW) 3,412 7.0 -26.8°
Reaches altitude 10° 19:46:53 10° 219° (SW) 2,480 6.3 -27.2°
Maximum altitude 19:52:33 65° 301° (WNW) 935 4.0 -28.0°
Drops below altitude 10° 19:58:15 10° 24° (NNE) 2,492 6.1 -28.9°
Sets 20:00:45 0° 28° (NNE) 3,430 6.9 -29.3°
